Hauptseite
METAR-TAF:

METAR-TAF

Flughäfen :

Flughafen Colmar

Colmar, Frankreich

Breite: 48-06-37N, Länge: 7-21-33E, Höhe: 191 m

Beobachtung

Neuester Wetterbericht von vor 36 Minuten, um 00:00 UTC
Wind 3 kt aus Südwest
Temperatur 6°C
Luftfeuchtigkeit 93%
Luftdruck 1027 hPa
Sichtweite: 3300 m
Geschlossene Wolkendecke in der Höhe von 200 ft
feuchter Dunst

METAR: LFGA 150000Z AUTO 23003KT 3300 BR OVC002 06/05 Q1027

Zeit: 01:36 (00:36 UTC)


TAF: fehlend

Wetterbeobachtungen und Prognosen von mehr als 4000 Flughäfen (METAR und TAF Bericht).

Die verfügbaren Stationen werden durch gelbe und rote Markierungen auf der Karte dargestellt.

Führen Sie die Maus auf sie, um den Namen der Station zu sehen.

Darauf klicken, um die Beobachtung von Wetterbeobachtungen und Prognosen zu sehen.

Um die Karte zu ändern : klicken Sie auf den grünen Tasten mit einem schwarzen Kreuz Zum Vergrößern, auf den grünen Button mit einem Gedankenstrich zu verkleinern, oder auf die grünen Pfeile für benachbarte Karten.


METAR-TAF: